{"data":{"norad_id":57820,"intl_designator":"2023-138N","name":"STARLINK-30409","alt_names":[],"object_type":"PAYLOAD","status":"ACTIVE","operator":null,"country":"US","launch_date":"2023-09-09","launch_site_code":"AFETR","launch_vehicle":null,"mission":null,"orbit_class":"UNKNOWN","rcs_meters":null,"size_class":null,"mass_kg":null,"dimensions":null,"purposes":["comms"],"wikipedia_slug":null,"has_3d_model":false,"image_url":null,"decayed_at":null,"tle_current":{"epoch":"2026-05-25T01:58:43.927104Z","epoch_age_seconds":68737,"freshness":"FRESH","line1":"1 57820U 23138N   26145.08245286 -.00001149  00000+0 -32251-4 0  9995","line2":"2 57820  43.0027 162.5611 0001412 277.3083  82.7608 15.27567041150364","mean_motion":15.27567041,"eccentricity":0.0001412,"inclination_deg":43.0027,"raan_deg":162.5611,"arg_perigee_deg":277.3083,"mean_anomaly_deg":82.7608,"bstar":-3.2251e-5,"rev_number":15036,"period_min":94.267548418518,"perigee_km":482.11909526604,"apogee_km":484.05670517787,"semimajor_km":6861.224900222,"source":"CELESTRAK","updated_at":"2026-05-25T13:38:18.410944Z"}}}